Hourly Data Report for January 19, 2019

TORONTO CITY
ONTARIO
Current Station Operator: ECCC - MSC

43°40'00.000" N
79°24'00.000" W
112.50 m
6158355
71508
XTO

Download Data

Hourly Data (January 2019)
Hourly Data Report for January 19, 2019
TIME
LST
Temp Definition
°C
Dew Point Definition
°C
Rel Hum Definition
%
Precip. Amount Definition
mm

Wind Dir Definition
10's deg

Wind Spd Definition
km/h
Visibility Definition
km
Stn Press Definition
kPa
Hmdx Definition


Wind Chill Definition


Weather Definition


00:00 -6.1 -10.7 70 0.0 LegendMM LegendMM   101.06     LegendNANA
01:00 -8.6 -16.9 51 0.0 LegendMM LegendMM   101.08     LegendNANA
02:00 -8.9 -16.7 53 0.0 LegendMM LegendMM   101.16     LegendNANA
03:00 -9.8 -16.2 59 0.0 LegendMM LegendMM   101.20     LegendNANA
04:00 -10.8 -17.4 58 0.0 LegendMM LegendMM   101.14     LegendNANA
05:00 -11.0 -17.5 59 0.0 LegendMM LegendMM   101.12     LegendNANA
06:00 -11.0 -17.0 61 0.0 LegendMM LegendMM   101.23     LegendNANA
07:00 -10.7 -16.5 62 0.0 LegendMM LegendMM   101.28     LegendNANA
08:00 -11.5 -17.2 63 0.0 LegendMM LegendMM   101.27     LegendNANA
09:00 -12.4 -18.7 59 0.0 LegendMM LegendMM   101.21     LegendNANA
10:00 -13.4 -17.9 68 0.2 LegendMM LegendMM   101.21     LegendNANA
11:00 -13.9 -16.9 78 0.2 LegendMM LegendMM   101.16     LegendNANA
12:00 -13.3 -15.8 81 0.5 LegendMM LegendMM   101.01     LegendNANA
13:00 -13.4 -16.0 81 0.5 LegendMM LegendMM   100.91     LegendNANA
14:00 -13.8 -16.3 81 1.0 LegendMM LegendMM   100.85     LegendNANA
15:00 -13.5 -16.4 79 0.3 LegendMM LegendMM   100.75     LegendNANA
16:00 -13.5 -16.1 81 0.5 LegendMM LegendMM   100.65     LegendNANA
17:00 -13.4 -16.0 81 0.5 LegendMM LegendMM   100.55     LegendNANA
18:00 -13.3 -15.7 82 0.2 LegendMM LegendMM   100.51     LegendNANA
19:00 -14.0 -16.3 83 0.3 LegendMM LegendMM   100.39     LegendNANA
20:00 -13.8 -16.2 82 0.2 LegendMM LegendMM   100.33     LegendNANA
21:00 -14.1 -16.5 82 0.6 LegendMM LegendMM   100.22     LegendNANA
22:00 -14.2 -16.5 83 0.6 LegendMM LegendMM   100.05     LegendNANA
23:00 -14.7 -17.1 82 0.6 LegendMM LegendMM   100.05     LegendNANA

Notes on Data Quality.

Legend

  • E = Estimated
  • M = Missing
  • NA = Not Available*
  • [empty] = Indicates an unobserved value
Date modified: